Regional Weather Roundup
Issued by NWS Charleston, SC

Current Version | Previous Version | Graphics & Text | Print | Product List | Glossary On
Versions: 1 2 3 4 5 6 7 8 9 10 11 12 13 14 15 16 17 18 19 20 21 22 23 24 25 26 27 28 29 30 31 32 33 34 35 36 37 38 39 40 41 42 43 44 45 46 47 48 49 50
000
ASUS42 KCHS 250927
RWRCHS

REGIONAL WEATHER ROUNDUP
NATIONAL WEATHER SERVICE CHARLESTON SC
500 AM EDT SAT APR 25 2015

NOTE: "FAIR" INDICATES FEW OR NO CLOUDS BELOW 12,000 FEET WITH NO
SIGNIFICANT WEATHER AND/OR OBSTRUCTIONS TO VISIBILITY.

NOT ALL STATIONS ARE QUALITY CONTROLLED BY THE NATIONAL
WEATHER SERVICE. USE DATA WITH CAUTION...ESPECIALLY
DEWPOINT OBSERVATIONS.

SCZ027-030-031-034>040-042>050-251000-
...SOUTHEAST SOUTH CAROLINA...

CITY           SKY/WX    TMP DP  RH WIND       PRES   REMARKS
N CHARLESTON   CLOUDY    62  51  67 CALM      29.93F
WATERFRONT PRK   N/A     68 N/A N/A S5          N/A
MOUNT PLEASANT FAIR      57  55  94 MISG      29.94R
PINOPOLIS      NOT AVBL
MONCKS CORNER  DRIZZLE   57  52  82 CALM      29.93S
SUMMERVILLE    RAIN      59  54  82 CALM      29.95R
BEAUFORT MCAS  CLOUDY    67  58  72 E5        29.92S
BEAUFORT ARPT  PTSUNNY   66  61  82 CALM      29.92R
HILTON HEAD IS CLOUDY    70  61  73 SE3       29.93R
WALTERBORO     CLOUDY    57  52  82 CALM      29.94R
ALLENDALE      CLOUDY    59  55  88 CALM      29.93R

...SOUTHERN MIDLANDS AND PEE DEE...

CITY           SKY/WX    TMP DP  RH WIND       PRES   REMARKS
GEORGETOWN     NOT AVBL
KINGSTREE      NOT AVBL
ORANGEBURG     LGT RAIN  57  50  77 SE3       29.92F
BARNWELL       DRIZZLE   59  55  88 CALM      29.94R
AIKEN          LGT RAIN  55  50  82 S3        29.98R
MANNING        RAIN      59  -6   7 S3        29.93F
COLUMBIA       CLOUDY    60  47  61 S3        29.92S
SUMTER         CLOUDY    58  49  70 S6        29.90F
FLORENCE       CLOUDY    57  48  72 S3        29.92F
MYRTLE BEACH   PTCLDY    61  48  63 SW5       29.96F
N MYRTLE BEACH PTCLDY    54  50  86 CALM      29.93F

$$

GAZ063-065-086>088-099>101-113>116-118-119-134>141-150-251000-
...SOUTHEAST GEORGIA...

CITY           SKY/WX    TMP DP  RH WIND       PRES   REMARKS
SAVANNAH ARPT  CLOUDY    65  56  72 CALM      29.91F
HUNTER AAF     CLOUDY    68  62  79 S6        29.88F
FORT STEWART   CLOUDY    62  56  81 CALM      29.89F
STATESBORO       N/A     62  55  77 CALM      29.91F
SYLVANIA       CLOUDY    60  56  89 CALM      29.92F
CLAXTON        FAIR      61  57  88 CALM      29.91R

...CSRA...CENTRAL AND FAR SOUTHEAST GEORGIA...

CITY           SKY/WX    TMP DP  RH WIND       PRES   REMARKS
THOMSON        CLOUDY    60  58  92 CALM      29.94F
AUGUSTA-BUSH   LGT RAIN  58  53  84 CALM      29.93R
AUGUSTA-DANIEL LGT RAIN  60  51  72 CALM      29.94R
SWAINSBORO     NOT AVBL
VIDALIA        MOCLDY    61  55  82 CALM      29.89F
EASTMAN        FAIR      61  57  86 CALM      29.92R
HAZLEHURST     HAZE      63  57  82 S6        29.88F VSB 1
ALMA           PTCLDY    61  56  83 SE3       29.89F
WAYCROSS       MOCLDY    63  60  90 CALM      29.90F
JESUP          FAIR      59  57  94 CALM      29.90F
BAXLEY         FAIR      61  57  88 CALM      29.88F
BRUNSWICK      PTCLDY    70  63  78 S3        29.92S
SAINT SIMONS   PTCLDY    69  63  81 S6        29.90F

$$

SCZ027-028-034-036>038-045-046-048>050-GAZ119-141-251000-
...LAKE AND SUPPLEMENTAL COASTAL OBSERVATIONS...

STATION/POSITION TIME  TEMP    WIND        PRES    WAVE   SWELL
                       AIR SEA DIR/SP/G            HT/PER HT/PER/DIR
                 (UTC) (F)     (DEG/KT/KT) (MB)    (FT/S) (FT/S/D)
UPR LAKE MARION  NOT AVBL
WINYAH BAY       0845   58     290/  1     1013.0S
LAKE MURRAY      0800   62     210/  8/ 10 1012.5F
ACE BASIN NERRS  NOT AVBL
FORT PULASKI     0900   68 70  140/  4/  6 1013.2F
SAPELO ISLAND    0900   68     140/  5     1012.0F

$$

ANZ835-935-AMZ111-154-330-350-352-354-370-450-454-472-251000-
...C-MAN AND BUOY OBSERVATIONS...

STATION/POSITION TIME  TEMP    WIND        PRES    WAVE   SWELL
                       AIR SEA DIR/SP/G            HT/PER HT/PER/DIR
                 (UTC) (F)     (DEG/KT/KT) (MB)    (FT/S) (FT/S/D)
BUOY 41004       0850   70 72  150/ 10/ 12 1013.0F   3/ 8   2/ 8
BUOY 41008       0850   70 69  150/  6/  8 1013.2F   2/ 9   2/ 80/ 9
FOLLY BEACH CMAN 0900   68     160/  9/ 10 1013.7F
CAPERS NEARSHORE 0808   68     190/ 10/ 12   N/A
FRIPP NEARSHORE  0800   69     170/ 12/ 14 1013.0F


STATION/POSITION TIME  TEMP    WIND        PRES    WAVE   SWELL
                       AIR SEA DIR/SP/G            HT/PER HT/PER/DIR
                 (UTC) (F)     (DEG/KT/KT) (MB)    (FT/S) (FT/S/D)
5E ST. MARYS GA  0821      70                N/A     3/10   2/ 90/13
FRYING PAN BUOY  0850   68 71  210/ 10/ 12 1015.0F   3/10   2/ 80/10
BUOY 41025       0850   65 71  250/ 14/ 17 1013.4S   4/10   3/ 50/10
CAPE LOOKOUT NC  0900   61     260/  7/  9 1013.5F
BUOY 41002       0850   63 70  150/  2/  4 1015.8F   6/ 8   7/ 20/ 8
BUOY 41010       0820   74 78  130/  8/ 10 1014.6R
ST AUGUSTINE FL  0900   72 68  150/ 12/ 13 1013.4F


$$



USA.gov is the U.S. government's official web portal to all federal, state and local government web resources and services.